Data No.,UTC Date,UTC Time,Latitude,Longitude,Course(deg),Temp(degC),Sal(psu)
9129,2008/12/7,5:58:00,00-00.1500N,144-52.4200E,342,30.244,34.8862
9130,2008/12/7,5:59:00,00-00.3600N,144-52.3600E,343,30.301,34.8843
9131,2008/12/7,6:00:00,00-00.5900N,144-52.2900E,343,30.244,34.8814
9132,2008/12/7,6:01:00,00-00.8000N,144-52.2200E,343,30.378,34.8856
9133,2008/12/7,6:02:00,00-01.0200N,144-52.1600E,343,30.273,34.8756
9134,2008/12/7,6:03:00,00-01.2400N,144-52.0900E,343,30.22,34.8702
9135,2008/12/7,6:04:00,00-01.4600N,144-52.0300E,343,30.216,34.8728
9136,2008/12/7,6:05:00,00-01.6800N,144-51.9600E,343,30.2,34.8765
9137,2008/12/7,6:06:00,00-01.9200N,144-51.8900E,343,30.214,34.8631
9138,2008/12/7,6:07:00,00-02.1400N,144-51.8200E,342,30.233,34.8604
9139,2008/12/7,6:08:00,00-02.3500N,144-51.7600E,343,30.2,34.8627
9140,2008/12/7,6:09:00,00-02.5700N,144-51.7000E,343,30.215,34.8579
9141,2008/12/7,6:10:00,00-02.7900N,144-51.6300E,342,30.261,34.8561
9142,2008/12/7,6:11:00,00-03.0100N,144-51.5600E,342,30.341,34.86
9143,2008/12/7,6:12:00,00-03.2300N,144-51.5000E,342,30.43,34.8742
9144,2008/12/7,6:13:00,00-03.4400N,144-51.4300E,343,30.347,34.9095
9145,2008/12/7,6:14:00,00-03.6700N,144-51.3600E,343,30.286,34.9239
9146,2008/12/7,6:15:00,00-03.8800N,144-51.3000E,343,30.278,34.9296
9147,2008/12/7,6:16:00,00-04.1100N,144-51.2300E,343,30.292,34.9287
9148,2008/12/7,6:17:00,00-04.3200N,144-51.1600E,343,30.318,34.9345
9149,2008/12/7,6:18:00,00-04.5400N,144-51.1000E,342,30.297,34.926
9150,2008/12/7,6:19:00,00-04.7600N,144-51.0300E,342,30.313,34.9174
9151,2008/12/7,6:20:00,00-04.9800N,144-50.9600E,343,30.33,34.9179
9152,2008/12/7,6:21:00,00-05.1900N,144-50.9000E,343,30.323,34.9191
9153,2008/12/7,6:22:00,00-05.4100N,144-50.8300E,343,30.331,34.9161
9154,2008/12/7,6:23:00,00-05.6300N,144-50.7700E,343,30.317,34.9161
9155,2008/12/7,6:24:00,00-05.8500N,144-50.7100E,344,30.309,34.9158
9156,2008/12/7,6:25:00,00-06.0700N,144-50.6400E,343,30.32,34.918
9157,2008/12/7,6:26:00,00-06.2800N,144-50.5800E,344,30.334,34.9204
9158,2008/12/7,6:27:00,00-06.5000N,144-50.5200E,344,30.33,34.9238
9159,2008/12/7,6:28:00,00-06.7400N,144-50.4500E,343,30.351,34.9531
9160,2008/12/7,6:29:00,00-06.9500N,144-50.3900E,343,30.377,34.9545
9161,2008/12/7,6:30:00,00-07.1700N,144-50.3300E,344,30.334,34.9346
9162,2008/12/7,6:31:00,00-07.3900N,144-50.2600E,343,30.313,34.9278
9163,2008/12/7,6:32:00,00-07.6000N,144-50.2000E,343,30.544,34.9492
9164,2008/12/7,6:33:00,00-07.8200N,144-50.1400E,344,30.48,34.922
9165,2008/12/7,6:34:00,00-08.0400N,144-50.0800E,344,30.351,34.9032
9166,2008/12/7,6:35:00,00-08.2600N,144-50.0100E,344,30.299,34.9017
9167,2008/12/7,6:36:00,00-08.4700N,144-49.9500E,344,30.283,34.9001
9168,2008/12/7,6:37:00,00-08.6900N,144-49.8900E,343,30.272,34.8929
9169,2008/12/7,6:38:00,00-08.9000N,144-49.8300E,342,30.291,34.9278
9170,2008/12/7,6:39:00,00-09.1200N,144-49.7600E,343,30.293,34.9426
9171,2008/12/7,6:40:00,00-09.3400N,144-49.7000E,343,30.297,34.9854
9172,2008/12/7,6:41:00,00-09.5500N,144-49.6300E,343,30.297,34.9986
9173,2008/12/7,6:42:00,00-09.7700N,144-49.5700E,343,30.302,35.0129
9174,2008/12/7,6:43:00,00-09.9800N,144-49.5000E,342,30.307,34.9777
9175,2008/12/7,6:44:00,00-10.2100N,144-49.4400E,343,30.311,34.987
9176,2008/12/7,6:45:00,00-10.4200N,144-49.3700E,343,30.315,34.9548
9177,2008/12/7,6:46:00,00-10.6400N,144-49.3100E,343,30.369,34.939
9178,2008/12/7,6:47:00,00-10.8600N,144-49.2400E,343,30.359,34.9661
9179,2008/12/7,6:48:00,00-11.0700N,144-49.1800E,343,30.338,35.005
9180,2008/12/7,6:49:00,00-11.3100N,144-49.1100E,343,30.343,34.9827
9181,2008/12/7,6:50:00,00-11.5200N,144-49.0400E,341,30.354,34.9576
9182,2008/12/7,6:51:00,00-11.7400N,144-48.9700E,340,30.361,34.9154
9183,2008/12/7,6:52:00,00-11.9500N,144-48.8900E,340,30.417,34.9321
9184,2008/12/7,6:53:00,00-12.1700N,144-48.8100E,340,30.399,35.0037
9185,2008/12/7,6:54:00,00-12.3800N,144-48.7400E,340,30.404,35.0405
9186,2008/12/7,6:55:00,00-12.5900N,144-48.6600E,340,30.375,35.0439
9187,2008/12/7,6:56:00,00-12.8100N,144-48.5800E,340,30.377,35.0531
9188,2008/12/7,6:57:00,00-13.0300N,144-48.5000E,340,30.335,35.0473
9189,2008/12/7,6:58:00,00-13.2400N,144-48.4300E,340,30.358,35.0562
9190,2008/12/7,6:59:00,00-13.4600N,144-48.3500E,339,30.373,35.0536
9191,2008/12/7,7:00:00,00-13.6700N,144-48.2700E,340,30.374,35.0462
9192,2008/12/7,7:01:00,00-13.8800N,144-48.2000E,340,30.393,35.0399
9193,2008/12/7,7:02:00,00-14.1000N,144-48.1200E,340,30.385,35.0322
9194,2008/12/7,7:03:00,00-14.3100N,144-48.0400E,340,30.29,35.0034
9195,2008/12/7,7:04:00,00-14.5300N,144-47.9700E,340,30.253,34.9443
9196,2008/12/7,7:05:00,00-14.7400N,144-47.8900E,340,30.31,34.9105
9197,2008/12/7,7:06:00,00-14.9600N,144-47.8100E,340,30.492,34.884
9198,2008/12/7,7:07:00,00-15.1700N,144-47.7400E,340,30.393,34.8903
9199,2008/12/7,7:08:00,00-15.3800N,144-47.6600E,339,30.37,34.9491
9200,2008/12/7,7:09:00,00-15.5900N,144-47.5800E,339,30.468,35.0014
9201,2008/12/7,7:10:00,00-15.8100N,144-47.5000E,339,30.527,35.0344
9202,2008/12/7,7:11:00,00-16.0400N,144-47.4200E,340,30.314,35.0406
9203,2008/12/7,7:12:00,00-16.2500N,144-47.3400E,340,30.206,35.1139
9204,2008/12/7,7:13:00,00-16.4600N,144-47.2700E,340,30.379,35.1218
9205,2008/12/7,7:14:00,00-16.6700N,144-47.1900E,339,30.317,35.1317
9206,2008/12/7,7:15:00,00-16.8800N,144-47.1100E,338,30.306,35.1343
9207,2008/12/7,7:16:00,00-17.0900N,144-47.0200E,338,30.261,35.133
9208,2008/12/7,7:17:00,00-17.3000N,144-46.9400E,338,30.176,35.1313
9209,2008/12/7,7:18:00,00-17.5100N,144-46.8700E,339,30.164,35.1277
9210,2008/12/7,7:19:00,00-17.7300N,144-46.7900E,339,30.147,35.1297
9211,2008/12/7,7:20:00,00-17.9300N,144-46.7100E,339,30.167,35.1298
9212,2008/12/7,7:21:00,00-18.1500N,144-46.6300E,339,30.17,35.134
9213,2008/12/7,7:22:00,00-18.3500N,144-46.5500E,339,30.175,35.1338
9214,2008/12/7,7:23:00,00-18.5600N,144-46.4800E,339,30.254,35.1353
9215,2008/12/7,7:24:00,00-18.7700N,144-46.4000E,339,30.366,35.1426
9216,2008/12/7,7:25:00,00-18.9800N,144-46.3200E,339,30.308,35.1463
9217,2008/12/7,7:26:00,00-19.1900N,144-46.2400E,339,30.241,35.1453
9218,2008/12/7,7:27:00,00-19.4000N,144-46.1600E,339,30.2,35.143
9219,2008/12/7,7:28:00,00-19.6000N,144-46.0900E,339,30.211,35.1455
9220,2008/12/7,7:29:00,00-19.8200N,144-46.0100E,339,30.226,35.146
9221,2008/12/7,7:30:00,00-20.0200N,144-45.9300E,340,30.224,35.1438
9222,2008/12/7,7:31:00,00-20.2300N,144-45.8600E,340,30.209,35.141
9223,2008/12/7,7:32:00,00-20.4600N,144-45.7800E,340,30.213,35.1381
9224,2008/12/7,7:33:00,00-20.6700N,144-45.7100E,340,30.212,35.1426
9225,2008/12/7,7:34:00,00-20.8800N,144-45.6400E,340,30.208,35.1467
9226,2008/12/7,7:35:00,00-21.0900N,144-45.5600E,341,30.217,35.1467
9227,2008/12/7,7:36:00,00-21.3000N,144-45.4900E,340,30.217,35.1426
9228,2008/12/7,7:37:00,00-21.5100N,144-45.4200E,340,30.209,35.1395
9229,2008/12/7,7:38:00,00-21.7100N,144-45.3400E,340,30.203,35.1349
9230,2008/12/7,7:39:00,00-21.9300N,144-45.2700E,341,30.253,35.1313
9231,2008/12/7,7:40:00,00-22.1300N,144-45.2000E,341,30.227,35.1308
9232,2008/12/7,7:41:00,00-22.3400N,144-45.1300E,341,30.218,35.1295
9233,2008/12/7,7:42:00,00-22.5500N,144-45.0600E,340,30.205,35.1271
9234,2008/12/7,7:43:00,00-22.7600N,144-44.9800E,340,30.198,35.1211
9235,2008/12/7,7:44:00,00-22.9700N,144-44.9100E,340,30.188,35.1143
9236,2008/12/7,7:45:00,00-23.1900N,144-44.8400E,341,30.157,35.1026
9237,2008/12/7,7:46:00,00-23.4000N,144-44.7700E,341,30.114,35.0958
9238,2008/12/7,7:47:00,00-23.6000N,144-44.7000E,341,30.053,35.0862
9239,2008/12/7,7:48:00,00-23.8100N,144-44.6300E,341,30.062,35.0557
9240,2008/12/7,7:49:00,00-24.0300N,144-44.5500E,341,30.072,35.0457
9241,2008/12/7,7:50:00,00-24.2400N,144-44.4800E,341,30.11,35.0473
9242,2008/12/7,7:51:00,00-24.4400N,144-44.4100E,341,30.11,35.06
9243,2008/12/7,7:52:00,00-24.6500N,144-44.3400E,341,30.091,35.0692
9244,2008/12/7,7:53:00,00-24.8600N,144-44.2700E,341,30.07,35.0579
9245,2008/12/7,7:54:00,00-25.0900N,144-44.2000E,341,30.067,35.0408
9246,2008/12/7,7:55:00,00-25.3000N,144-44.1300E,341,30.077,35.0386
9247,2008/12/7,7:56:00,00-25.5100N,144-44.0700E,342,30.076,35.0446
9248,2008/12/7,7:57:00,00-25.7200N,144-44.0000E,342,30.152,35.0467
9249,2008/12/7,7:58:00,00-25.9400N,144-43.9400E,343,30.133,35.0522
9250,2008/12/7,7:59:00,00-26.1400N,144-43.8700E,343,30.136,35.0552
9251,2008/12/7,8:00:00,00-26.3600N,144-43.8100E,343,30.129,35.0571
9252,2008/12/7,8:01:00,00-26.5600N,144-43.7500E,343,30.031,35.0405
9253,2008/12/7,8:02:00,00-26.7800N,144-43.6900E,343,29.985,35.0129
9254,2008/12/7,8:03:00,00-26.9900N,144-43.6200E,343,29.965,34.9939
9255,2008/12/7,8:04:00,00-27.2000N,144-43.5600E,342,29.91,34.9836
9256,2008/12/7,8:05:00,00-27.4100N,144-43.4900E,342,29.916,34.9602
9257,2008/12/7,8:06:00,00-27.6200N,144-43.4300E,343,29.885,34.9404
9258,2008/12/7,8:07:00,00-27.8300N,144-43.3600E,343,29.876,34.9346
9259,2008/12/7,8:08:00,00-28.0400N,144-43.3000E,343,29.876,34.9351
9260,2008/12/7,8:09:00,00-28.2500N,144-43.2400E,343,29.898,34.9373
9261,2008/12/7,8:10:00,00-28.4600N,144-43.1800E,343,29.99,34.9427
9262,2008/12/7,8:11:00,00-28.6700N,144-43.1100E,343,29.925,34.9514
9263,2008/12/7,8:12:00,00-28.8700N,144-43.0500E,343,29.896,34.956
9264,2008/12/7,8:13:00,00-29.0900N,144-42.9900E,343,29.91,34.956
9265,2008/12/7,8:14:00,00-29.2900N,144-42.9300E,343,29.915,34.9565
9266,2008/12/7,8:15:00,00-29.5200N,144-42.8700E,343,29.97,34.9554
9267,2008/12/7,8:16:00,00-29.7300N,144-42.8100E,344,29.977,34.9595
9268,2008/12/7,8:17:00,00-29.9400N,144-42.7500E,343,29.972,34.9618
9269,2008/12/7,8:18:00,00-30.1500N,144-42.6900E,344,29.961,34.9656
9270,2008/12/7,8:19:00,00-30.3600N,144-42.6300E,343,29.946,34.9673
9271,2008/12/7,8:20:00,00-30.5600N,144-42.5700E,344,29.929,34.967
9272,2008/12/7,8:21:00,00-30.7700N,144-42.5100E,344,29.892,34.9556
9273,2008/12/7,8:22:00,00-30.9800N,144-42.4500E,344,29.886,34.93
9274,2008/12/7,8:23:00,00-31.1900N,144-42.3900E,344,29.88,34.9247
9275,2008/12/7,8:24:00,00-31.4000N,144-42.3300E,343,29.875,34.9214
9276,2008/12/7,8:25:00,00-31.6000N,144-42.2700E,343,29.88,34.9194
9277,2008/12/7,8:26:00,00-31.8100N,144-42.2100E,343,29.884,34.9217
9278,2008/12/7,8:27:00,00-32.0200N,144-42.1600E,344,29.869,34.9174
9279,2008/12/7,8:28:00,00-32.2300N,144-42.1000E,344,29.858,34.9166
9280,2008/12/7,8:29:00,00-32.4400N,144-42.0400E,344,29.858,34.915
9281,2008/12/7,8:30:00,00-32.6500N,144-41.9800E,344,29.916,34.9061
9282,2008/12/7,8:31:00,00-32.8500N,144-41.9200E,344,29.865,34.8994
9283,2008/12/7,8:32:00,00-33.0600N,144-41.8700E,345,29.845,34.8949
9284,2008/12/7,8:33:00,00-33.2700N,144-41.8100E,345,29.831,34.8941
9285,2008/12/7,8:34:00,00-33.4800N,144-41.7600E,345,29.814,34.8926
9286,2008/12/7,8:35:00,00-33.6900N,144-41.7000E,344,29.813,34.888
9287,2008/12/7,8:36:00,00-33.9100N,144-41.6400E,344,29.81,34.8856
9288,2008/12/7,8:37:00,00-34.1200N,144-41.5800E,344,29.807,34.8848
9289,2008/12/7,8:38:00,00-34.3300N,144-41.5200E,344,29.817,34.8829
9290,2008/12/7,8:39:00,00-34.5400N,144-41.4600E,344,29.824,34.8828
9291,2008/12/7,8:40:00,00-34.7500N,144-41.4000E,343,29.838,34.8829
9292,2008/12/7,8:41:00,00-34.9600N,144-41.3400E,344,29.829,34.8853
9293,2008/12/7,8:42:00,00-35.1700N,144-41.2800E,344,29.867,34.8862
9294,2008/12/7,8:43:00,00-35.3800N,144-41.2200E,344,29.874,34.8938
9295,2008/12/7,8:44:00,00-35.5900N,144-41.1600E,344,29.902,34.899
9296,2008/12/7,8:45:00,00-35.8000N,144-41.1100E,344,29.925,34.9023
9297,2008/12/7,8:46:00,00-36.0100N,144-41.0400E,343,29.895,34.906
9298,2008/12/7,8:47:00,00-36.2200N,144-40.9900E,344,29.902,34.9069
9299,2008/12/7,8:48:00,00-36.4300N,144-40.9300E,345,29.899,34.9063
9300,2008/12/7,8:49:00,00-36.6400N,144-40.8700E,345,29.88,34.9061
9301,2008/12/7,8:50:00,00-36.8500N,144-40.8200E,344,29.902,34.9025
9302,2008/12/7,8:51:00,00-37.0600N,144-40.7600E,344,29.963,34.897
9303,2008/12/7,8:52:00,00-37.2600N,144-40.7000E,343,29.959,34.892
9304,2008/12/7,8:53:00,00-37.4700N,144-40.6400E,343,29.893,34.8866
9305,2008/12/7,8:54:00,00-37.6800N,144-40.5800E,343,29.855,34.8836
9306,2008/12/7,8:55:00,00-37.9000N,144-40.5200E,345,29.83,34.8806
9307,2008/12/7,8:56:00,00-38.1100N,144-40.4600E,345,29.825,34.8769
9308,2008/12/7,8:57:00,00-38.3200N,144-40.4100E,344,29.827,34.8748
9309,2008/12/7,8:58:00,00-38.5400N,144-40.3500E,344,29.829,34.8767
9310,2008/12/7,8:59:00,00-38.7500N,144-40.2900E,344,29.833,34.8788
9311,2008/12/7,9:00:00,00-38.9600N,144-40.2300E,344,29.827,34.8794
9312,2008/12/7,9:01:00,00-39.1800N,144-40.1700E,344,29.824,34.8724
9313,2008/12/7,9:02:00,00-39.3900N,144-40.1100E,344,29.833,34.8721
9314,2008/12/7,9:03:00,00-39.6000N,144-40.0500E,344,29.837,34.8695
9315,2008/12/7,9:04:00,00-39.8100N,144-39.9900E,344,29.837,34.8713
9316,2008/12/7,9:05:00,00-40.0300N,144-39.9400E,345,29.824,34.8708
9317,2008/12/7,9:06:00,00-40.2400N,144-39.8800E,345,29.828,34.8713
9318,2008/12/7,9:07:00,00-40.4600N,144-39.8200E,344,29.835,34.8733
9319,2008/12/7,9:08:00,00-40.6700N,144-39.7600E,344,29.819,34.8752
9320,2008/12/7,9:09:00,00-40.8900N,144-39.7100E,345,29.819,34.8753
9321,2008/12/7,9:10:00,00-41.1000N,144-39.6500E,344,29.843,34.8762
9322,2008/12/7,9:11:00,00-41.3200N,144-39.5900E,345,29.86,34.879
9323,2008/12/7,9:12:00,00-41.5300N,144-39.5300E,344,29.851,34.8827
9324,2008/12/7,9:13:00,00-41.7500N,144-39.4700E,344,29.888,34.8846
9325,2008/12/7,9:14:00,00-41.9600N,144-39.4100E,344,29.876,34.8871
9326,2008/12/7,9:15:00,00-42.1700N,144-39.3500E,343,29.841,34.8847
9327,2008/12/7,9:16:00,00-42.3900N,144-39.2900E,344,29.86,34.8833
9328,2008/12/7,9:17:00,00-42.6000N,144-39.2300E,344,29.862,34.8813
9329,2008/12/7,9:18:00,00-42.8200N,144-39.1700E,344,29.862,34.8801
9330,2008/12/7,9:19:00,00-43.0300N,144-39.1100E,344,29.855,34.8746
9331,2008/12/7,9:20:00,00-43.2600N,144-39.0500E,345,29.855,34.872
9332,2008/12/7,9:21:00,00-43.4800N,144-39.0000E,344,29.879,34.8708
9333,2008/12/7,9:22:00,00-43.6900N,144-38.9400E,344,29.884,34.8698
9334,2008/12/7,9:23:00,00-43.9100N,144-38.8700E,343,29.869,34.8707
9335,2008/12/7,9:24:00,00-44.1200N,144-38.8100E,342,29.846,34.8698
9336,2008/12/7,9:25:00,00-44.3300N,144-38.7400E,342,29.861,34.8673
9337,2008/12/7,9:26:00,00-44.5400N,144-38.6800E,342,29.882,34.8677
9338,2008/12/7,9:27:00,00-44.7500N,144-38.6100E,342,29.892,34.8678
9339,2008/12/7,9:28:00,00-44.9700N,144-38.5400E,343,29.84,34.8672
9340,2008/12/7,9:29:00,00-45.1800N,144-38.4800E,343,29.841,34.8616
9341,2008/12/7,9:30:00,00-45.3900N,144-38.4200E,343,29.86,34.8568
9342,2008/12/7,9:31:00,00-45.6000N,144-38.3600E,343,29.827,34.8539
9343,2008/12/7,9:32:00,00-45.8100N,144-38.3000E,343,29.843,34.8537
9344,2008/12/7,9:33:00,00-46.0200N,144-38.2300E,343,29.862,34.8584
9345,2008/12/7,9:34:00,00-46.2300N,144-38.1700E,343,29.843,34.8593
9346,2008/12/7,9:35:00,00-46.4400N,144-38.1100E,343,29.825,34.8604
9347,2008/12/7,9:36:00,00-46.6600N,144-38.0400E,343,29.829,34.8542
9348,2008/12/7,9:37:00,00-46.8700N,144-37.9800E,343,29.811,34.8535
9349,2008/12/7,9:38:00,00-47.0800N,144-37.9100E,342,29.806,34.8502
9350,2008/12/7,9:39:00,00-47.2900N,144-37.8500E,343,29.812,34.8477
9351,2008/12/7,9:40:00,00-47.5000N,144-37.7900E,343,29.799,34.8473
9352,2008/12/7,9:41:00,00-47.7100N,144-37.7200E,342,29.813,34.8403
9353,2008/12/7,9:42:00,00-47.9400N,144-37.6500E,343,29.824,34.8424
9354,2008/12/7,9:43:00,00-48.1500N,144-37.5900E,343,29.826,34.8453
9355,2008/12/7,9:44:00,00-48.3600N,144-37.5200E,343,29.825,34.8427
9356,2008/12/7,9:45:00,00-48.5800N,144-37.4600E,343,29.828,34.844
9357,2008/12/7,9:46:00,00-48.7900N,144-37.3900E,343,29.821,34.846
9358,2008/12/7,9:47:00,00-49.0000N,144-37.3300E,343,29.829,34.8433
9359,2008/12/7,9:48:00,00-49.2200N,144-37.2600E,342,29.842,34.8434
9360,2008/12/7,9:49:00,00-49.4300N,144-37.2000E,341,29.862,34.8433
9361,2008/12/7,9:50:00,00-49.6400N,144-37.1300E,342,29.835,34.8427
9362,2008/12/7,9:51:00,00-49.8600N,144-37.0600E,342,29.815,34.8411
9363,2008/12/7,9:52:00,00-50.0700N,144-36.9900E,342,29.805,34.84
9364,2008/12/7,9:53:00,00-50.2800N,144-36.9300E,342,29.811,34.84
9365,2008/12/7,9:54:00,00-50.4900N,144-36.8600E,342,29.82,34.8403
9366,2008/12/7,9:55:00,00-50.7100N,144-36.7900E,342,29.841,34.8409
9367,2008/12/7,9:56:00,00-50.9300N,144-36.7300E,342,29.884,34.8422
9368,2008/12/7,9:57:00,00-51.1400N,144-36.6600E,343,29.821,34.8429
9369,2008/12/7,9:58:00,00-51.3500N,144-36.6000E,342,29.82,34.8404
9370,2008/12/7,9:59:00,00-51.5700N,144-36.5300E,343,29.823,34.8387
9371,2008/12/7,10:00:00,00-51.7800N,144-36.4600E,343,29.82,34.8386
9372,2008/12/7,10:01:00,00-52.0000N,144-36.4000E,342,29.811,34.8382
9373,2008/12/7,10:02:00,00-52.2100N,144-36.3300E,342,29.829,34.8372
9374,2008/12/7,10:03:00,00-52.4400N,144-36.2600E,342,29.89,34.8379
9375,2008/12/7,10:04:00,00-52.6600N,144-36.1900E,342,29.878,34.8405
9376,2008/12/7,10:05:00,00-52.8700N,144-36.1200E,342,29.879,34.8424
9377,2008/12/7,10:06:00,00-53.0800N,144-36.0600E,342,29.859,34.8463
9378,2008/12/7,10:07:00,00-53.3000N,144-35.9900E,343,29.873,34.8496
9379,2008/12/7,10:08:00,00-53.5100N,144-35.9200E,343,29.856,34.8522
9380,2008/12/7,10:09:00,00-53.7300N,144-35.8600E,342,29.884,34.8521
9381,2008/12/7,10:10:00,00-53.9400N,144-35.7900E,342,29.864,34.8537
9382,2008/12/7,10:11:00,00-54.1500N,144-35.7300E,342,29.916,34.8526
9383,2008/12/7,10:12:00,00-54.3700N,144-35.6600E,342,29.978,34.8542
9384,2008/12/7,10:13:00,00-54.5800N,144-35.5900E,342,29.908,34.8547
9385,2008/12/7,10:14:00,00-54.8000N,144-35.5200E,342,29.882,34.8512
9386,2008/12/7,10:15:00,00-55.0000N,144-35.4600E,342,29.899,34.8498
9387,2008/12/7,10:16:00,00-55.2200N,144-35.3900E,341,29.884,34.8475
9388,2008/12/7,10:17:00,00-55.4300N,144-35.3200E,343,29.871,34.8463
9389,2008/12/7,10:18:00,00-55.6500N,144-35.2500E,342,29.855,34.8483
9390,2008/12/7,10:19:00,00-55.8600N,144-35.1900E,342,29.854,34.8483
9391,2008/12/7,10:20:00,00-56.0700N,144-35.1200E,342,29.92,34.8491
9392,2008/12/7,10:21:00,00-56.2800N,144-35.0600E,342,29.93,34.8535
9393,2008/12/7,10:22:00,00-56.5000N,144-34.9900E,341,29.924,34.8544
9394,2008/12/7,10:23:00,00-56.7100N,144-34.9200E,341,29.944,34.8562
9395,2008/12/7,10:24:00,00-56.9200N,144-34.8500E,342,29.968,34.8565
9396,2008/12/7,10:25:00,00-57.1500N,144-34.7800E,342,29.925,34.8559
9397,2008/12/7,10:26:00,00-57.3600N,144-34.7100E,342,29.904,34.8541
9398,2008/12/7,10:27:00,00-57.5700N,144-34.6500E,343,29.894,34.8501
9399,2008/12/7,10:28:00,00-57.7800N,144-34.5900E,342,29.902,34.8474
9400,2008/12/7,10:29:00,00-57.9900N,144-34.5200E,342,29.917,34.8447
9401,2008/12/7,10:30:00,00-58.2100N,144-34.4500E,341,29.934,34.8418
9402,2008/12/7,10:31:00,00-58.4100N,144-34.3900E,342,29.923,34.835
9403,2008/12/7,10:32:00,00-58.6300N,144-34.3200E,342,29.896,34.821
9404,2008/12/7,10:33:00,00-58.8300N,144-34.2500E,342,29.852,34.8243
9405,2008/12/7,10:34:00,00-59.0500N,144-34.1800E,342,29.861,34.8118
9406,2008/12/7,10:35:00,00-59.2600N,144-34.1200E,342,29.841,34.7975
9407,2008/12/7,10:36:00,00-59.4700N,144-34.0500E,341,29.842,34.7971
9408,2008/12/7,10:37:00,00-59.6800N,144-33.9800E,342,29.835,34.7983
9409,2008/12/7,10:38:00,00-59.8900N,144-33.9100E,342,29.813,34.7909
9410,2008/12/7,10:39:00,01-00.1000N,144-33.8500E,342,29.791,34.7887
9411,2008/12/7,10:40:00,01-00.3100N,144-33.7800E,342,29.791,34.7707
9412,2008/12/7,10:41:00,01-00.5200N,144-33.7100E,341,29.785,34.7658
9413,2008/12/7,10:42:00,01-00.7400N,144-33.6400E,342,29.774,34.7525
9414,2008/12/7,10:43:00,01-00.9400N,144-33.5800E,342,29.77,34.7456
9415,2008/12/7,10:44:00,01-01.1600N,144-33.5100E,342,29.787,34.7356
9416,2008/12/7,10:45:00,01-01.3700N,144-33.4400E,342,29.753,34.7443
9417,2008/12/7,10:46:00,01-01.6000N,144-33.3700E,342,29.747,34.7445
9418,2008/12/7,10:47:00,01-01.8100N,144-33.3000E,341,29.783,34.7376
9419,2008/12/7,10:48:00,01-02.0200N,144-33.2300E,342,29.757,34.7403
9420,2008/12/7,10:49:00,01-02.2400N,144-33.1600E,342,29.747,34.7405
9421,2008/12/7,10:50:00,01-02.4500N,144-33.1000E,342,29.772,34.7512
9422,2008/12/7,10:51:00,01-02.6600N,144-33.0300E,342,29.908,34.747
9423,2008/12/7,10:52:00,01-02.8700N,144-32.9600E,342,30.023,34.7694
9424,2008/12/7,10:53:00,01-03.0800N,144-32.8900E,341,30.108,34.7802
9425,2008/12/7,10:54:00,01-03.2900N,144-32.8300E,342,30.129,34.7873
9426,2008/12/7,10:55:00,01-03.5000N,144-32.7600E,342,30.145,34.784
9427,2008/12/7,10:56:00,01-03.7100N,144-32.6900E,342,30.162,34.7799
9428,2008/12/7,10:57:00,01-03.9300N,144-32.6200E,342,30.019,34.7785
9429,2008/12/7,10:58:00,01-04.1400N,144-32.5600E,342,30.043,34.7793
9430,2008/12/7,10:59:00,01-04.3500N,144-32.4900E,342,30.148,34.7772
9431,2008/12/7,11:00:00,01-04.5600N,144-32.4200E,341,30.12,34.7684
9432,2008/12/7,11:01:00,01-04.7700N,144-32.3500E,342,30.08,34.758
9433,2008/12/7,11:02:00,01-04.9800N,144-32.2900E,342,30.024,34.7467
9434,2008/12/7,11:03:00,01-05.2000N,144-32.2200E,342,30.062,34.7436
9435,2008/12/7,11:04:00,01-05.4000N,144-32.1500E,341,30.084,34.7354
9436,2008/12/7,11:05:00,01-05.6100N,144-32.0900E,342,29.945,34.7247
9437,2008/12/7,11:06:00,01-05.8200N,144-32.0200E,341,29.962,34.7149
9438,2008/12/7,11:07:00,01-06.0300N,144-31.9500E,341,29.917,34.7145
9439,2008/12/7,11:08:00,01-06.2500N,144-31.8800E,342,29.936,34.7236
9440,2008/12/7,11:09:00,01-06.4600N,144-31.8100E,342,29.939,34.7313
9441,2008/12/7,11:10:00,01-06.6700N,144-31.7500E,342,29.95,34.7377
9442,2008/12/7,11:11:00,01-06.8800N,144-31.6800E,342,29.975,34.7424
9443,2008/12/7,11:12:00,01-07.1000N,144-31.6200E,342,29.976,34.7363
9444,2008/12/7,11:13:00,01-07.3000N,144-31.5500E,341,29.99,34.7351
9445,2008/12/7,11:14:00,01-07.5100N,144-31.4800E,341,29.996,34.7323
9446,2008/12/7,11:15:00,01-07.7200N,144-31.4100E,342,29.974,34.7235
9447,2008/12/7,11:16:00,01-07.9300N,144-31.3500E,342,29.936,34.7212
9448,2008/12/7,11:17:00,01-08.1400N,144-31.2800E,342,29.915,34.7229
9449,2008/12/7,11:18:00,01-08.3600N,144-31.2100E,342,29.888,34.7225
9450,2008/12/7,11:19:00,01-08.5700N,144-31.1500E,342,29.878,34.7245
9451,2008/12/7,11:20:00,01-08.7700N,144-31.0800E,342,29.875,34.7244
9452,2008/12/7,11:21:00,01-08.9900N,144-31.0100E,341,29.91,34.7268
9453,2008/12/7,11:22:00,01-09.2000N,144-30.9400E,342,29.923,34.7242
9454,2008/12/7,11:23:00,01-09.4100N,144-30.8700E,342,29.903,34.729
9455,2008/12/7,11:24:00,01-09.6200N,144-30.8000E,341,29.893,34.7329
9456,2008/12/7,11:25:00,01-09.8300N,144-30.7400E,341,29.906,34.7306
9457,2008/12/7,11:26:00,01-10.0400N,144-30.6700E,342,29.923,34.7307
9458,2008/12/7,11:27:00,01-10.2600N,144-30.6000E,342,29.921,34.7348
9459,2008/12/7,11:28:00,01-10.4700N,144-30.5400E,342,29.935,34.7372
9460,2008/12/7,11:29:00,01-10.6900N,144-30.4700E,342,29.945,34.7415
9461,2008/12/7,11:30:00,01-10.9000N,144-30.4000E,342,29.947,34.748
9462,2008/12/7,11:31:00,01-11.1100N,144-30.3300E,342,29.971,34.7483
9463,2008/12/7,11:32:00,01-11.3200N,144-30.2600E,342,29.967,34.7465
9464,2008/12/7,11:33:00,01-11.5300N,144-30.2000E,342,29.975,34.7446
9465,2008/12/7,11:34:00,01-11.7400N,144-30.1300E,342,29.966,34.7439
9466,2008/12/7,11:35:00,01-11.9500N,144-30.0600E,341,29.955,34.7417
9467,2008/12/7,11:36:00,01-12.1600N,144-29.9900E,341,29.99,34.7393
9468,2008/12/7,11:37:00,01-12.3700N,144-29.9300E,342,29.963,34.737
9469,2008/12/7,11:38:00,01-12.5800N,144-29.8600E,342,29.946,34.7343
9470,2008/12/7,11:39:00,01-12.7900N,144-29.7900E,342,29.935,34.7305
9471,2008/12/7,11:40:00,01-13.0000N,144-29.7300E,342,29.911,34.7279
9472,2008/12/7,11:41:00,01-13.2100N,144-29.6600E,341,29.926,34.7262
9473,2008/12/7,11:42:00,01-13.4200N,144-29.5900E,341,29.951,34.7236
9474,2008/12/7,11:43:00,01-13.6300N,144-29.5300E,341,29.97,34.721
9475,2008/12/7,11:44:00,01-13.8400N,144-29.4600E,341,29.947,34.7175
9476,2008/12/7,11:45:00,01-14.0500N,144-29.3900E,342,29.966,34.7137
9477,2008/12/7,11:46:00,01-14.2500N,144-29.3200E,341,29.967,34.7113
9478,2008/12/7,11:47:00,01-14.4600N,144-29.2500E,341,29.975,34.7097
9479,2008/12/7,11:48:00,01-14.6700N,144-29.1800E,341,29.962,34.7094